Location: ???????
(55.4362°N, 38.1183°E)
Time: 21:49:44
(UTC+00:00)

NOAA 19 - Visible Passes

Search period start: 01 December 2021 00:00
Search period end: 11 December 2021 00:00
Orbit: 840 x 861 km, 99.2° (Epoch: 01 December)

Date Brightness Start Highest point End Pass type
(mag) Time Alt. Az. Time Alt. Az. Time Alt. Az.
01 Dec 7.5 04:16:35 10° NE 04:21:17 28° E 04:25:57 10° SSE visible
01 Dec 6.2 14:11:18 10° ESE 14:15:35 24° NE 14:19:53 10° N visible
01 Dec 5.1 15:50:12 10° SSE 15:55:40 86° WSW 16:01:12 10° NNW visible
01 Dec 7.6 17:33:26 10° SW 17:37:10 18° W 17:40:54 10° NW visible
02 Dec 7.8 04:05:00 10° NE 04:09:20 23° E 04:13:39 10° SE visible
02 Dec 6.4 13:59:57 10° E 14:03:55 21° NE 14:07:54 10° N visible
02 Dec 5.1 15:38:24 10° SSE 15:43:52 80° ENE 15:49:22 10° NNW visible
02 Dec 7.4 17:20:59 10° SW 17:25:10 22° W 17:29:24 10° NW visible
03 Dec 7.9 03:53:27 10° NE 03:57:21 19° E 04:01:14 10° SE visible
03 Dec 6.5 13:48:40 10° E 13:52:16 18° NE 13:55:54 10° N visible
03 Dec 5.1 15:26:39 10° SSE 15:32:04 67° ENE 15:37:32 10° NNW visible
03 Dec 7.1 17:08:38 10° SSW 17:13:12 27° W 17:17:49 10° NW visible
04 Dec 8.1 03:42:03 10° NE 03:45:21 16° E 03:48:38 10° ESE visible
04 Dec 6.7 13:37:28 10° E 13:40:39 16° NE 13:43:51 10° N visible
04 Dec 5.2 15:14:58 10° SE 15:20:17 57° ENE 15:25:40 10° NNW visible
04 Dec 6.8 16:56:25 10° SSW 17:01:16 32° W 17:06:09 10° NNW visible
05 Dec 8.2 03:30:51 10° NE 03:33:19 13° E 03:35:47 10° ESE visible
05 Dec 5.4 15:03:20 10° SE 15:08:32 48° ENE 15:13:47 10° N visible
05 Dec 6.5 16:44:16 10° SSW 16:49:21 38° W 16:54:28 10° NNW visible
06 Dec 8.5 03:20:25 10° ENE 03:21:16 10° E 03:22:07 10° E visible
06 Dec 5.6 14:51:44 10° SE 14:56:48 40° ENE 15:01:54 10° N visible
06 Dec 6.1 16:32:12 10° S 16:37:26 46° W 16:42:44 10° NNW visible
07 Dec 6.6 04:46:05 10° NNE 04:51:22 43° E 04:56:37 10° S visible
07 Dec 5.8 14:40:12 10° ESE 14:45:05 35° ENE 14:50:00 10° N visible
07 Dec 5.8 16:20:12 10° S 16:25:33 56° WSW 16:30:59 10° NNW visible
07 Dec 8.1 18:05:51 10° W 18:07:29 11° W 18:09:07 10° WNW visible
08 Dec 7.0 04:34:22 10° NNE 04:39:28 36° E 04:44:32 10° SSE visible
08 Dec 5.9 14:28:43 10° ESE 14:33:22 30° NE 14:38:05 10° N visible
08 Dec 5.5 16:08:16 10° S 16:13:42 67° WSW 16:19:12 10° NNW visible
08 Dec 7.9 17:52:39 10° WSW 17:55:26 14° W 17:58:14 10° NW visible
09 Dec 7.3 04:22:41 10° NNE 04:27:32 30° E 04:32:21 10° SSE visible
09 Dec 6.1 14:17:17 10° ESE 14:21:41 26° NE 14:26:08 10° N visible
09 Dec 5.2 15:56:23 10° SSE 16:01:51 80° WSW 16:07:24 10° NNW visible
09 Dec 7.7 17:39:55 10° SW 17:43:25 17° W 17:46:56 10° NW visible
10 Dec 7.6 04:11:04 10° NE 04:15:35 25° E 04:20:06 10° SE visible
10 Dec 6.3 14:05:54 10° E 14:10:01 22° NE 14:14:10 10° N visible
10 Dec 5.1 15:44:33 10° SSE 15:50:02 86° ENE 15:55:34 10° NNW visible
10 Dec 7.5 17:27:24 10° SW 17:31:25 21° W 17:35:29 10° NW visible
